Regional Weather Roundup
Issued by NWS

Home | Current Version | Previous Version | Graphics & Text | Print | Product List | Glossary On
Versions: 1 2 3 4 5 6 7 8 9 10 11 12 13 14 15 16 17 18 19 20 21 22 23 24 25 26 27 28 29 30 31 32 33 34 35 36 37 38 39 40 41 42 43 44 45 46 47 48 49 50
000
ASUS43 KDTX 281201
RWRMI
MICHIGAN HOURLY REGIONAL WEATHER ROUNDUP
NATIONAL WEATHER SERVICE DETROIT/PONTIAC MI
800 AM EDT SUN MAY 28 2017

NOTE: "FAIR" INDICATES FEW OR NO CLOUDS BELOW 12,000 FEET WITH NO
SIGNIFICANT WEATHER AND/OR OBSTRUCTION TO VISIBILITY.

MIZ047>049-052>055-059>063-066>070-074>076-081>083-281300-
SOUTHEAST LOWER MICHIGAN

CITY           SKY/WX    TMP DP  RH WIND       PRES   REMARKS
ADRIAN         CLOUDY    60  55  83 E7        29.79S
6HR MIN TEMP:  55; 6HR MAX TEMP:  60;

ALMA           CLOUDY    62  58  86 SE3       29.78F
ANN ARBOR      PTSUNNY   61  54  77 NE6       29.80R
BAD AXE        MOSUNNY   60  55  85 S3        29.81S
6HR MIN TEMP:  52; 6HR MAX TEMP:  60;

CARO           CLOUDY    61  56  84 CALM      29.79S
DETROIT CITY   PTSUNNY   62  54  74 E5        29.81S
6HR MIN TEMP:  56; 6HR MAX TEMP:  62;

DETROIT        CLOUDY    62  52  69 E7        29.81S
6HR MIN TEMP:  59; 6HR MAX TEMP:  62;

FLINT          CLOUDY    61  55  81 S6        29.80S
6HR MIN TEMP:  55; 6HR MAX TEMP:  61;

GROSSE ILE     PTSUNNY   60  53  78 E3        29.79S
6HR MIN TEMP:  57; 6HR MAX TEMP:  60;

HILLSDALE      CLOUDY    59  52  77 E6        29.77F
HOWELL         CLOUDY    61  52  73 E5        29.80S
6HR MIN TEMP:  56; 6HR MAX TEMP:  61;


CITY           SKY/WX    TMP DP  RH WIND       PRES   REMARKS
JACKSON        MOSUNNY   62  54  74 E6        29.78F
6HR MIN TEMP:  56; 6HR MAX TEMP:  62;

LAMBERTVILLE   CLOUDY    62  57  83 CALM      29.78S
6HR MIN TEMP:  55; 6HR MAX TEMP:  62;

LANSING        PTSUNNY   63  53  70 SE9       29.79S
6HR MIN TEMP:  57; 6HR MAX TEMP:  63;

LAPEER         FAIR      59  55  87 SE5       29.81S
6HR MIN TEMP:  54; 6HR MAX TEMP:  59;

MASON          CLOUDY    61  55  78 E3        29.79S
MONROE         CLOUDY    62  56  81 E3        29.79R
PONTIAC        CLOUDY    62  53  72 SE7       29.80R
6HR MIN TEMP:  55; 6HR MAX TEMP:  62;

PORT HOPE        N/A     62  55  77 VRB3      29.78F
6HR MIN TEMP:  53; 6HR MAX TEMP:  62;

PORT HURON     MOSUNNY   57  52  82 SE3       29.83R
TRI CITIES     CLOUDY    62  57  83 S6        29.79R
6HR MIN TEMP:  61; 6HR MAX TEMP:  63;

MIDLAND        FAIR      63  56  77 S5        29.78S
6HR MIN TEMP:  56; 6HR MAX TEMP:  63;

TROY           CLOUDY    60  54  80 E5        29.82S
SAGINAW HB     CLOUDY    61  52  72 S5        29.79R
$$
MIZ043>046-050>051-056>058-064>065-071>073-077>080-281300-
SOUTHWEST LOWER MICHIGAN

CITY           SKY/WX    TMP DP  RH WIND       PRES   REMARKS
BATTLE CREEK   MOSUNNY   61  55  81 E7        29.78S
6HR MIN TEMP:  57; 6HR MAX TEMP:  62;

BENTON HARBOR  CLOUDY    63  57  81 E5        29.73F
6HR MIN TEMP:  55; 6HR MAX TEMP:  63;

BIG RAPIDS     CLOUDY    59  54  82 CALM      29.75F
6HR MIN TEMP:  54; 6HR MAX TEMP:  59;

COLDWATER      CLOUDY    60  56  87 E3        29.76F
6HR MIN TEMP:  55; 6HR MAX TEMP:  60;

FREMONT        FAIR      62  54  75 SE3       29.75S
HOLLAND        CLOUDY    63  56  78 SE6       29.75S
6HR MIN TEMP:  59; 6HR MAX TEMP:  63;

GRAND RAPIDS   CLOUDY    63  58  83 SE7       29.76S
6HR MIN TEMP:  59; 6HR MAX TEMP:  63;

IONIA          FAIR      62  56  82 SE9       29.76F
6HR MIN TEMP:  57; 6HR MAX TEMP:  62;

KALAMAZOO      CLOUDY    62  55  77 E5        29.77F
6HR MIN TEMP:  55; 6HR MAX TEMP:  62;

LUDINGTON      CLOUDY    59  53  80 CALM      29.74F
6HR MIN TEMP:  52; 6HR MAX TEMP:  59;

MARSHALL       CLOUDY    60  57  88 E5        29.76F
6HR MIN TEMP:  55; 6HR MAX TEMP:  60;

MOUNT PLEASANT CLOUDY    63  58  83 SE3       29.77S
6HR MIN TEMP:  56; 6HR MAX TEMP:  63;

MUSKEGON       CLOUDY    64  57  78 SE7       29.74F
6HR MIN TEMP:  59; 6HR MAX TEMP:  64;

SOUTH HAVEN    CLOUDY    61  58  90 E6        29.74S
$$
MIZ016>042-281300-
NORTHERN LOWER MICHIGAN

CITY           SKY/WX    TMP DP  RH WIND       PRES   REMARKS
ALPENA         CLOUDY    57  55  93 CALM      29.77F
6HR MIN TEMP:  55; 6HR MAX TEMP:  58; 6HR PCP:  0.01;

BEAVER ISLAND  LGT RAIN  53  52  95 CALM      29.74F
6HR MIN TEMP:  52; 6HR MAX TEMP:  61;

BELLAIRE       CLOUDY    57  55  92 CALM      29.75F
6HR MIN TEMP:  54; 6HR MAX TEMP:  57;

CADILLAC       CLOUDY    58  56  91 CALM      29.76S
CHARLEVOIX     CLOUDY    59  56  91 SE3       29.76F
6HR MIN TEMP:  55; 6HR MAX TEMP:  59;

FRANKFORT      CLOUDY    59  52  77 CALM      29.74F
GAYLORD        CLOUDY    59  54  83 CALM      29.76F
6HR MIN TEMP:  58; 6HR MAX TEMP:  60;

GRAYLING       PTSUNNY   57  54  91 CALM      29.77F
6HR MIN TEMP:  52; 6HR MAX TEMP:  57;

HARBOR SPRINGS CLOUDY    58  57  95 CALM      29.74F
HOUGHTON LAKE  CLOUDY    62  56  80 CALM      29.77S
6HR MIN TEMP:  54; 6HR MAX TEMP:  62;

MANISTEE       CLOUDY    57  53  86 E5        29.74F
OSCODA         MOSUNNY   59  55  85 S7        29.77F
6HR MIN TEMP:  48; 6HR MAX TEMP:  59;

PELLSTON       CLOUDY    59  54  83 CALM      29.75F
6HR MIN TEMP:  51; 6HR MAX TEMP:  59;

ROGERS CITY    CLOUDY    60  55  83 NW3       29.77S
TRAVERSE CITY  CLOUDY    61  52  72 CALM      29.72F
6HR MIN TEMP:  55; 6HR MAX TEMP:  61;

$$
MIZ007>008-015-281300-
EASTERN UPPER MICHIGAN

CITY           SKY/WX    TMP DP  RH WIND       PRES   REMARKS
KINROSS        PTSUNNY   54  51  90 E7        29.76F
6HR MIN TEMP:  52; 6HR MAX TEMP:  54;

MACKINAC ISLAN CLOUDY    50  50 100 CALM      29.75F
6HR MIN TEMP:  49; 6HR MAX TEMP:  51;

NEWBERRY       MOSUNNY   55  53  95 CALM      29.74F
6HR MIN TEMP:  52; 6HR MAX TEMP:  56;

S. S. MARIE    PTSUNNY   56  51  84 VRB5      29.76F
6HR MIN TEMP:  55; 6HR MAX TEMP:  58;

MUNISING         N/A     54  52  93 S5        29.70F
6HR MIN TEMP:  49; 6HR MAX TEMP:  56; 6HR PCP:  0.01;

$$
MIZ004>006-011>014-085-281300-
CENTRAL UPPER MICHIGAN

CITY           SKY/WX    TMP DP  RH WIND       PRES   REMARKS
MANISTIQUE     CLOUDY    49  46  90 N5        29.71F
6HR MIN TEMP:  46; 6HR MAX TEMP:  49;

ESCANABA       CLOUDY    55  53  93 CALM      29.72S FOG
6HR MIN TEMP:  53; 6HR MAX TEMP:  56; 6HR PCP:  0.01;

SAWYER-GWINN   CLOUDY    54  52  94 CALM      29.72F
$$
MIZ001>003-009>011-084-281300-
WESTERN UPPER MICHIGAN

CITY           SKY/WX    TMP DP  RH WIND       PRES   REMARKS
IRON MOUNTAIN  LGT RAIN  56  52  86 CALM      29.72S
6HR MIN TEMP:  55; 6HR MAX TEMP:  59; 6HR PCP: TRACE;

HOUGHTON       CLOUDY    57  48  72 NW12      29.69F
6HR MIN TEMP:  49; 6HR MAX TEMP:  58; 6HR PCP: TRACE;

COPPER HARBOR    N/A     58  48  69 VRB3      29.70S
6HR MIN TEMP:  54; 6HR MAX TEMP:  58;

IRONWOOD       CLOUDY    55  51  86 SE6       29.71F
6HR MIN TEMP:  54; 6HR MAX TEMP:  61; 6HR PCP: TRACE;

$$

ABBREVIATIONS USED IN REMARKS
   TC - TEMPERATURE IN CELSIUS
  WCI - WIND CHILL INDEX
   HX - HEAT INDEX
  VSB - VISIBILITY





USA.gov is the U.S. government's official web portal to all federal, state and local government web resources and services.